Location: Herm
(49.4830°N, 2.4500°W)
Time: 00:30:31
(UTC+00:00)

Amateur Radio Satellites - All Passes

Search period start: 11 December 2017 00:00
Search period end: 12 December 2017 00:00
Location: Herm, 49.4830°N, 2.4500°W

Satellite Date Start Highest point End Downlink Frequencies (MHz)
Time Altitude Azimuth
AIST 2D 11 Dec 00:03:54 00:07:18 42° 289° (WNW) 00:10:40 435.315
SO-50 11 Dec 00:06:54 00:11:21 45° 42° (NE) 00:15:53 436.795
DUCHIFAT 1 11 Dec 00:09:07 00:13:11 47° 99° (E) 00:17:13 145.980
UKube-1 11 Dec 00:10:53 00:14:11 22° 61° (ENE) 00:17:30 .
AO-85 11 Dec 00:13:49 00:17:44 57° 315° (NW) 00:21:55 145.980
DX 1 11 Dec 00:15:46 00:19:45 35° 66° (ENE) 00:23:45 434.975-435.025
PCSat 11 Dec 00:22:10 00:24:16 12° 359° (N) 00:26:21 145.827
SPROUT 11 Dec 00:22:19 00:26:13 34° 263° (W) 00:30:07 437.525
ESTCUBE 1 11 Dec 00:27:42 00:28:43 11° 275° (W) 00:29:45 437.505/2401.250
50 SAT 11 Dec 00:28:18 00:31:18 38° 70° (ENE) 00:34:19 437.505
NANOSAT C BR1 11 Dec 00:32:45 00:36:59 87° 280° (W) 00:41:11 145.865
VELOX 1 11 Dec 00:41:29 00:45:36 36° 263° (W) 00:49:45 145.980
EO-79 11 Dec 00:44:58 00:49:06 59° 288° (WNW) 00:53:15 145.935-145.965
BEESAT 3 11 Dec 00:55:15 00:56:01 10° 347° (NNW) 00:56:47 437.485
Oscar 19 11 Dec 01:05:46 01:10:20 30° 95° (E) 01:14:53 437.125/150
POLYITAN 1 11 Dec 01:06:52 01:10:45 36° 292° (WNW) 01:14:37 437.675
RS-15 11 Dec 01:08:08 01:19:26 54° 246° (WSW) 01:30:09 29.354- 29.394
BUGSAT 1 11 Dec 01:08:09 01:12:04 49° 100° (E) 01:15:59 437.445
Gurwin Techsat 1B 11 Dec 01:10:52 01:15:16 25° 93° (E) 01:19:38 435.225
BEESAT 2 11 Dec 01:22:22 01:24:12 13° 341° (NNW) 01:26:04 435.950
QB50P2 11 Dec 01:32:44 01:35:51 20° 298° (WNW) 01:38:58 145.880/145.840
CUBESAT XI-V 11 Dec 01:34:26 01:35:16 10° 52° (NE) 01:36:07 437.345
BEESAT 11 Dec 01:37:16 01:41:15 27° 62° (ENE) 01:45:15 436.000
DUCHIFAT 1 11 Dec 01:45:24 01:48:34 21° 298° (WNW) 01:51:43 145.980
UKube-1 11 Dec 01:45:42 01:49:54 49° 260° (W) 01:54:08 .
SO-50 11 Dec 01:47:33 01:51:44 33° 241° (WSW) 01:55:58 436.795
DX 1 11 Dec 01:52:09 01:55:58 29° 264° (W) 01:59:49 434.975-435.025
MOZHAYETS 4 11 Dec 01:56:08 02:00:31 49° 70° (ENE) 02:04:56
AO-85 11 Dec 01:56:25 01:59:04 16° 338° (NNW) 02:01:51 145.980
50 SAT 11 Dec 02:01:41 02:03:28 14° 268° (W) 02:05:14 437.505
ITUPSAT 1 11 Dec 02:01:49 02:06:18 42° 67° (ENE) 02:10:47 437.325
PCSat 11 Dec 02:06:14 02:09:57 18° 25° (NNE) 02:13:40 145.827
AO-91 11 Dec 02:06:31 02:10:13 74° 287° (WNW) 02:13:39 145.960
NANOSAT C BR1 11 Dec 02:10:21 02:12:01 12° 304° (WNW) 02:13:41 145.865
AO-7 11 Dec 02:12:05 02:17:38 19° 87° (E) 02:23:09 .
YUBILEINY 11 Dec 02:43:37 02:51:34 40° 85° (E) 02:59:34 435.215
BUGSAT 1 11 Dec 02:44:15 02:47:07 19° 298° (WNW) 02:49:59 437.445
Oscar 19 11 Dec 02:44:52 02:49:49 44° 293° (WNW) 02:54:44 437.125/150
KKS-1 11 Dec 02:45:25 02:46:50 11° 53° (NE) 02:48:14 437.445
M-CUBED/EXP-1 PRIME 11 Dec 02:45:44 02:48:40 17° 94° (E) 02:51:31 437.505
Gurwin Techsat 1B 11 Dec 02:50:20 02:55:32 54° 291° (WNW) 03:00:41 435.225
CUBESAT XI-V 11 Dec 03:07:07 03:11:42 62° 72° (ENE) 03:16:21 437.345
BEESAT 11 Dec 03:14:18 03:18:49 44° 261° (W) 03:23:24 436.000
RS-15 11 Dec 03:24:41 03:28:41 12° 270° (W) 03:32:38 29.354- 29.394
MOZHAYETS 4 11 Dec 03:34:24 03:37:56 22° 268° (W) 03:41:29
STARS 11 Dec 03:39:55 03:42:30 16° 57° (ENE) 03:45:05 437.465
AO-85 11 Dec 03:39:55 03:41:18 11° 3° (N) 03:42:43 145.980
ITUPSAT 1 11 Dec 03:40:13 03:44:16 27° 266° (W) 03:48:20 437.325
ITAMSAT 1 11 Dec 03:46:55 03:51:59 50° 100° (E) 03:56:59 435.822/435.867
PCSat 11 Dec 03:49:12 03:54:34 55° 49° (NE) 03:59:53 145.827
AO-7 11 Dec 04:03:21 04:11:47 77° 108° (ESE) 04:20:10 .
BEESAT 3 11 Dec 04:11:04 04:14:17 23° 34° (NE) 04:17:29 437.485
KKS-1 11 Dec 04:18:07 04:22:34 71° 73° (ENE) 04:27:03 437.445
M-CUBED/EXP-1 PRIME 11 Dec 04:18:53 04:23:31 71° 293° (WNW) 04:27:57 437.505
Gurwin Techsat 1B 11 Dec 04:32:58 04:34:21 11° 312° (NW) 04:35:44 435.225
YUBILEINY 11 Dec 04:39:29 04:48:06 56° 287° (WNW) 04:56:50 435.215
BEESAT 2 11 Dec 04:40:09 04:43:02 18° 29° (NNE) 04:45:53 435.950
CUBESAT XI-V 11 Dec 04:46:16 04:49:29 18° 270° (W) 04:52:44 437.345
FO-29 11 Dec 04:48:15 04:50:38 12° 38° (NE) 04:53:01 435.910
STRAND 1 11 Dec 04:59:35 05:02:35 16° 54° (NE) 05:05:35 437.568
DOVE 4 11 Dec 05:05:00 05:09:42 60° 100° (E) 05:14:03 437.250
XW-2D 11 Dec 05:05:52 05:07:17 12° 88° (E) 05:08:42 145.860 - 145.880
STARS 11 Dec 05:13:52 05:18:17 78° 256° (WSW) 05:22:43 437.465
AO-85 11 Dec 05:20:05 05:23:26 20° 27° (NNE) 05:26:57 145.980
XW-2B 11 Dec 05:20:42 05:23:10 16° 90° (E) 05:25:37 145.730 - 145.750
KAITUO 1B 11 Dec 05:25:15 05:27:10 13° 89° (E) 05:29:06 145.475/437.950
ITAMSAT 1 11 Dec 05:26:50 05:31:11 28° 299° (WNW) 05:35:32 435.822/435.867
NUDT-PHONESAT 11 Dec 05:29:24 05:31:25 14° 89° (E) 05:33:25 437.300
HO-68 11 Dec 05:30:55 05:33:51 13° 82° (E) 05:36:46 435.675
PCSat 11 Dec 05:33:01 05:37:42 30° 249° (WSW) 05:42:20 145.827
XW-2F 11 Dec 05:36:19 05:39:22 22° 93° (E) 05:42:24 145.980 - 146.000
XW-2C 11 Dec 05:47:04 05:50:32 30° 96° (E) 05:53:58 145.795 - 145.815
BEESAT 3 11 Dec 05:48:15 05:52:10 64° 235° (SW) 05:56:01 437.485
M-CUBED/EXP-1 PRIME 11 Dec 05:54:49 05:57:03 14° 312° (NW) 05:59:16 437.505
AO-7 11 Dec 05:56:44 06:03:54 33° 310° (NW) 06:11:04 .
KKS-1 11 Dec 05:57:03 05:59:38 15° 271° (W) 06:02:12 437.445
BEESAT 2 11 Dec 06:17:19 06:21:23 80° 52° (NE) 06:25:23 435.950
CUTE 1.7 + AOD 2 11 Dec 06:17:23 06:20:32 20° 91° (E) 06:23:40 437.475
LilacSat-2 11 Dec 06:17:37 06:21:31 72° 101° (ESE) 06:25:23 437.200
CUTE-I 11 Dec 06:20:36 06:25:51 52° 100° (E) 06:31:01 437.470
CUBEBUG 2 11 Dec 06:20:56 06:22:53 13° 88° (E) 06:24:50 437.445
FO-29 11 Dec 06:26:37 06:33:35 38° 59° (ENE) 06:40:37 435.910
STRAND 1 11 Dec 06:35:54 06:41:02 85° 74° (ENE) 06:46:12 437.568
XW-2D 11 Dec 06:38:04 06:41:55 71° 287° (WNW) 06:45:45 145.860 - 145.880
YUBILEINY 11 Dec 06:42:28 06:47:22 16° 314° (NW) 06:52:19 435.215
DOVE 4 11 Dec 06:43:31 06:46:54 20° 301° (WNW) 06:50:09 437.250
XW-2B 11 Dec 06:53:52 06:57:37 49° 288° (WNW) 07:01:20 145.730 - 145.750
KAITUO 1B 11 Dec 06:57:45 07:01:32 59° 287° (WNW) 07:05:16 145.475/437.950
AO-85 11 Dec 06:59:58 07:04:36 69° 48° (NE) 07:09:36 145.980
NUDT-PHONESAT 11 Dec 07:01:53 07:05:35 56° 287° (WNW) 07:09:16 437.300
ZACube-1 11 Dec 07:04:59 07:06:39 12° 87° (E) 07:08:20 437.345
XW-2F 11 Dec 07:10:02 07:13:34 35° 291° (WNW) 07:17:05 145.980 - 146.000
XW-2A 11 Dec 07:11:18 07:13:34 16° 92° (E) 07:15:48 145.665 - 145.685
HO-68 11 Dec 07:15:55 07:23:03 63° 103° (ESE) 07:30:08 435.675
XW-2C 11 Dec 07:21:22 07:24:37 26° 294° (WNW) 07:27:51 145.795 - 145.815
Oscar 11 11 Dec 07:31:54 07:34:06 14° 88° (E) 07:36:18 .
SEEDS 11 Dec 07:37:52 07:42:10 77° 103° (ESE) 07:46:24 437.485
AO-73 11 Dec 07:40:14 07:43:43 23° 93° (E) 07:47:14 145.935
AO-7 11 Dec 07:51:21 07:54:09 12° 335° (NNW) 07:56:57 .
CUTE 1.7 + AOD 2 11 Dec 07:52:28 07:56:39 50° 289° (WNW) 08:00:47 437.475
LilacSat-2 11 Dec 07:53:20 07:55:16 13° 300° (WNW) 07:57:11 437.200
CUBEBUG 2 11 Dec 07:55:49 08:00:01 74° 286° (WNW) 08:04:17 437.445
BEESAT 2 11 Dec 07:56:26 07:58:31 14° 249° (WSW) 08:00:36 435.950
CUTE-I 11 Dec 08:01:08 08:05:38 28° 299° (WNW) 08:10:06 437.470
UWE-3 11 Dec 08:04:27 08:08:43 80° 103° (ESE) 08:13:03 435.000/436.395/437.385
AAUSAT CUBESAT 2 11 Dec 08:10:02 08:14:14 75° 102° (ESE) 08:18:24 437.432
FO-29 11 Dec 08:10:34 08:18:11 63° 260° (W) 08:26:02 435.910
STRAND 1 11 Dec 08:17:59 08:20:54 15° 273° (W) 08:23:49 437.568
NO-84 11 Dec 08:24:43 08:27:39 36° 140° (SE) 08:30:50 435.350 FM
TIGRISAT 11 Dec 08:33:59 08:38:06 45° 70° (ENE) 08:42:10 435.000
UNISAT 6 11 Dec 08:35:59 08:40:10 52° 71° (ENE) 08:44:20 437.425
O/OREOS (USA 219) 11 Dec 08:37:12 08:40:50 23° 103° (ESE) 08:44:28 437.305
ZACube-1 11 Dec 08:39:11 08:43:29 83° 285° (WNW) 08:47:52 437.345
AO-85 11 Dec 08:41:01 08:44:41 22° 246° (WSW) 08:48:33 145.980
XW-2A 11 Dec 08:43:12 08:46:25 38° 290° (WNW) 08:49:37 145.665 - 145.685
PRISM 11 Dec 08:58:01 09:01:41 30° 65° (ENE) 09:05:20 437.425
HO-68 11 Dec 09:04:09 09:10:25 34° 304° (NW) 09:16:39 435.675
Oscar 11 11 Dec 09:06:24 09:10:46 75° 285° (WNW) 09:15:07 .
AIST 2D 11 Dec 09:10:38 09:12:11 13° 61° (ENE) 09:13:45 435.315
SEEDS 11 Dec 09:14:54 09:17:17 15° 301° (WNW) 09:19:39 437.485
AO-73 11 Dec 09:16:04 09:20:06 41° 291° (WNW) 09:24:12 145.935
Max Valier Satellite 11 Dec 09:20:33 09:23:38 24° 94° (E) 09:26:41 145.860
CUBEBUG 2 11 Dec 09:35:11 09:35:54 10° 304° (NW) 09:36:37 437.445
UWE-3 11 Dec 09:42:25 09:44:38 14° 301° (WNW) 09:46:52 435.000/436.395/437.385
AAUSAT CUBESAT 2 11 Dec 09:46:50 09:49:08 15° 301° (WNW) 09:51:25 437.432
DELFI C3 11 Dec 09:51:34 09:55:33 75° 103° (ESE) 09:59:29 145.870
NANOSAT C BR1 11 Dec 09:54:55 09:57:25 16° 59° (ENE) 09:59:55 145.865
EO-88 11 Dec 09:58:17 10:01:49 42° 99° (E) 10:05:19 145.990 - 145.960
FO-29 11 Dec 10:00:43 10:04:44 15° 281° (W) 10:08:48 435.910
NO-84 11 Dec 10:01:36 10:04:50 49° 341° (NNW) 10:08:22 435.350 FM
EO-79 11 Dec 10:06:30 10:09:43 22° 62° (ENE) 10:12:56 145.935-145.965
TIGRISAT 11 Dec 10:11:44 10:15:01 21° 268° (W) 10:18:17 435.000
UNISAT 6 11 Dec 10:14:08 10:17:11 19° 269° (W) 10:20:13 437.425
O/OREOS (USA 219) 11 Dec 10:15:30 10:19:57 49° 302° (WNW) 10:24:25 437.305
ZACube-1 11 Dec 10:17:27 10:19:06 12° 303° (WNW) 10:20:46 437.345
POLYITAN 1 11 Dec 10:27:38 10:31:24 33° 67° (ENE) 10:35:10 437.675
PRISM 11 Dec 10:33:11 10:36:54 31° 264° (W) 10:40:38 437.425
ESTCUBE 1 11 Dec 10:35:49 10:38:37 16° 89° (E) 10:41:24 437.505/2401.250
AIST 2D 11 Dec 10:41:24 10:44:53 62° 259° (W) 10:48:24 435.315
LO-87 11 Dec 10:42:50 10:45:28 19° 93° (E) 10:48:05 145.935 - 145.965
Oscar 11 11 Dec 10:44:47 10:46:08 11° 305° (NW) 10:47:27 .
Oscar 19 11 Dec 10:51:07 10:53:20 13° 51° (NE) 10:55:32 437.125/150
QB50P2 11 Dec 10:52:29 10:56:39 64° 72° (ENE) 11:00:49 145.880/145.840
Max Valier Satellite 11 Dec 10:54:09 10:57:28 31° 292° (WNW) 11:00:47 145.860
Gurwin Techsat 1B 11 Dec 11:00:11 11:02:13 12° 50° (NE) 11:04:14 435.225
DUCHIFAT 1 11 Dec 11:04:30 11:08:35 60° 72° (ENE) 11:12:43 145.980
DELFI C3 11 Dec 11:27:48 11:29:44 13° 301° (WNW) 11:31:39 145.870
AO-7 11 Dec 11:28:11 11:32:13 15° 31° (NNE) 11:36:15 .
NANOSAT C BR1 11 Dec 11:28:28 11:32:38 69° 258° (WSW) 11:36:50 145.865
AO-91 11 Dec 11:31:27 11:35:05 21° 63° (ENE) 11:38:30 145.960
EO-88 11 Dec 11:32:36 11:35:10 18° 297° (WNW) 11:37:43 145.990 - 145.960
NO-84 11 Dec 11:39:24 11:42:38 33° 2° (N) 11:46:07 435.350 FM
EO-79 11 Dec 11:41:10 11:45:12 45° 261° (W) 11:49:16 145.935-145.965
O/OREOS (USA 219) 11 Dec 11:59:19 12:00:32 11° 325° (NW) 12:01:45 437.305
BUGSAT 1 11 Dec 12:01:28 12:05:28 61° 73° (ENE) 12:09:28 437.445
SPROUT 11 Dec 12:03:12 12:06:54 28° 95° (E) 12:10:34 437.525
POLYITAN 1 11 Dec 12:03:35 12:07:12 28° 265° (W) 12:10:50 437.675
ESTCUBE 1 11 Dec 12:11:21 12:15:54 69° 287° (WNW) 12:20:25 437.505/2401.250
LO-87 11 Dec 12:15:44 12:18:58 34° 291° (WNW) 12:22:10 145.935 - 145.965
Oscar 19 11 Dec 12:26:38 12:31:42 66° 71° (ENE) 12:36:51 437.125/150
VELOX 1 11 Dec 12:26:48 12:30:44 30° 95° (E) 12:34:38 145.980
QB50P2 11 Dec 12:30:26 12:32:51 15° 271° (W) 12:35:17 145.880/145.840
Gurwin Techsat 1B 11 Dec 12:35:54 12:41:08 60° 69° (ENE) 12:46:23 435.225
DUCHIFAT 1 11 Dec 12:42:06 12:44:39 16° 270° (W) 12:47:12 145.980
YUBILEINY 11 Dec 12:47:41 12:54:53 26° 58° (ENE) 13:01:59 435.215
AO-91 11 Dec 13:06:18 13:11:15 60° 259° (W) 13:15:47 145.960
50 SAT 11 Dec 13:12:43 13:14:54 17° 93° (E) 13:17:04 437.505
AO-7 11 Dec 13:15:14 13:22:51 42° 55° (NE) 13:30:28 .
NO-84 11 Dec 13:16:43 13:20:22 59° 22° (NNE) 13:24:19 435.350 FM
RS-15 11 Dec 13:28:06 13:35:58 20° 96° (E) 13:43:45 29.354- 29.394
UKube-1 11 Dec 13:28:48 13:31:57 20° 92° (E) 13:35:06 .
nSIGHT-1 11 Dec 13:29:25 13:32:24 36° 148° (SSE) 13:35:24 .
ITAMSAT 1 11 Dec 13:31:32 13:35:23 21° 57° (ENE) 13:39:13 435.822/435.867
M-CUBED/EXP-1 PRIME 11 Dec 13:33:49 13:37:50 38° 60° (ENE) 13:42:03 437.505
DX 1 11 Dec 13:35:19 13:39:19 34° 97° (E) 13:43:17 434.975-435.025
BUGSAT 1 11 Dec 13:38:55 13:41:12 15° 270° (W) 13:43:31 437.445
SPROUT 11 Dec 13:38:59 13:42:49 33° 293° (WNW) 13:46:37 437.525
ESTCUBE 1 11 Dec 13:50:33 13:51:51 11° 307° (NW) 13:53:09 437.505/2401.250
ISS 11 Dec 13:56:31 13:59:41 46° 152° (SSE) 14:02:52 437.550
VELOX 1 11 Dec 14:03:12 14:07:11 34° 294° (WNW) 14:11:10 145.980
Oscar 19 11 Dec 14:07:49 14:11:31 20° 270° (W) 14:15:14 437.125/150
Gurwin Techsat 1B 11 Dec 14:17:19 14:21:28 23° 269° (W) 14:25:39 435.225
DOVE 4 11 Dec 14:38:10 14:41:35 18° 58° (ENE) 14:44:56 437.250
YUBILEINY 11 Dec 14:44:02 14:52:57 87° 262° (W) 15:01:45 435.215
50 SAT 11 Dec 14:44:06 14:46:56 30° 291° (WNW) 14:49:45 437.505
NO-84 11 Dec 14:54:02 14:57:36 36° 221° (SW) 15:01:21 435.350 FM
CUBESAT XI-V 11 Dec 15:01:19 15:02:56 12° 85° (E) 15:04:33 437.345
UKube-1 11 Dec 15:04:04 15:08:16 50° 290° (WNW) 15:12:25 .
nSIGHT-1 11 Dec 15:05:17 15:08:30 69° 348° (NNW) 15:11:43 .
AO-7 11 Dec 15:07:13 15:15:22 59° 257° (WSW) 15:23:37 .
M-CUBED/EXP-1 PRIME 11 Dec 15:08:27 15:12:14 30° 260° (W) 15:16:14 437.505
ITAMSAT 1 11 Dec 15:09:08 15:14:20 71° 256° (WSW) 15:19:35 435.822/435.867
BEESAT 11 Dec 15:09:46 15:14:05 33° 96° (E) 15:18:23 436.000
DX 1 11 Dec 15:11:38 15:15:25 29° 296° (WNW) 15:19:11 434.975-435.025
MOZHAYETS 4 11 Dec 15:23:25 15:28:01 64° 102° (ESE) 15:32:36
ISS 11 Dec 15:32:51 15:36:08 63° 351° (N) 15:39:25 437.550
RS-15 11 Dec 15:33:57 15:46:07 69° 120° (ESE) 15:58:07 29.354- 29.394
ITUPSAT 1 11 Dec 15:35:10 15:39:52 54° 101° (E) 15:44:33 437.325
XW-2D 11 Dec 15:51:34 15:52:58 12° 58° (ENE) 15:54:22 145.860 - 145.880
HO-68 11 Dec 16:04:16 16:09:05 20° 46° (NE) 16:13:53 435.675
SO-50 11 Dec 16:05:43 16:09:29 27° 117° (ESE) 16:13:20 436.795
XW-2B 11 Dec 16:06:15 16:08:33 16° 61° (ENE) 16:10:52 145.730 - 145.750
CUTE-I 11 Dec 16:08:24 16:12:32 23° 58° (ENE) 16:16:40 437.470
KAITUO 1B 11 Dec 16:09:38 16:11:22 13° 59° (ENE) 16:13:05 145.475/437.950
NUDT-PHONESAT 11 Dec 16:12:55 16:14:38 13° 60° (ENE) 16:16:21 437.300
DOVE 4 11 Dec 16:13:18 16:18:37 87° 256° (WSW) 16:23:49 437.250
XW-2F 11 Dec 16:21:12 16:24:02 20° 64° (ENE) 16:26:53 145.980 - 146.000
XW-2C 11 Dec 16:32:14 16:35:29 28° 67° (ENE) 16:38:46 145.795 - 145.815
CUBESAT XI-V 11 Dec 16:36:17 16:41:03 84° 104° (ESE) 16:45:46 437.345
nSIGHT-1 11 Dec 16:41:42 16:44:55 60° 8° (N) 16:48:07 .
YUBILEINY 11 Dec 16:42:14 16:48:29 22° 285° (WNW) 16:54:43 435.215
BEESAT 11 Dec 16:47:33 16:51:52 35° 295° (WNW) 16:56:11 436.000
ITAMSAT 1 11 Dec 16:53:29 16:54:45 11° 275° (W) 16:56:01 435.822/435.867
STARS 11 Dec 17:00:13 17:02:29 14° 89° (E) 17:04:44 437.465
SEEDS 11 Dec 17:00:32 17:02:18 12° 57° (ENE) 17:04:04 437.485
MOZHAYETS 4 11 Dec 17:01:28 17:04:44 19° 300° (WNW) 17:08:00
LilacSat-2 11 Dec 17:03:05 17:06:51 64° 74° (ENE) 17:10:41 437.200
O/OREOS (USA 219) 11 Dec 17:03:24 17:06:23 17° 43° (NE) 17:09:20 437.305
AO-7 11 Dec 17:06:43 17:10:01 13° 278° (W) 17:13:20 .
ISS 11 Dec 17:09:33 17:12:50 66° 11° (N) 17:16:07 437.550
ITUPSAT 1 11 Dec 17:13:38 17:17:22 23° 300° (WNW) 17:21:06 437.325
CUTE 1.7 + AOD 2 11 Dec 17:13:55 17:17:20 24° 64° (ENE) 17:20:46 437.475
XW-2D 11 Dec 17:22:46 17:26:32 81° 256° (WSW) 17:30:23 145.860 - 145.880
CUBEBUG 2 11 Dec 17:22:49 17:25:45 19° 62° (ENE) 17:28:41 437.445
UWE-3 11 Dec 17:31:29 17:33:38 14° 58° (ENE) 17:35:46 435.000/436.395/437.385
AAUSAT CUBESAT 2 11 Dec 17:31:33 17:33:01 12° 56° (ENE) 17:34:29 437.432
XW-2B 11 Dec 17:38:36 17:42:19 56° 260° (W) 17:46:05 145.730 - 145.750
KKS-1 11 Dec 17:41:02 17:45:29 78° 102° (ESE) 17:49:55 437.445
KAITUO 1B 11 Dec 17:41:05 17:44:48 71° 258° (WSW) 17:48:35 145.475/437.950
NUDT-PHONESAT 11 Dec 17:44:18 17:47:57 68° 257° (WSW) 17:51:41 437.300
SO-50 11 Dec 17:45:22 17:49:44 50° 317° (NW) 17:54:11 436.795
CUTE-I 11 Dec 17:46:46 17:52:07 67° 257° (WSW) 17:57:30 437.470
RS-15 11 Dec 17:47:12 17:59:16 55° 327° (NNW) 18:11:05 29.354- 29.394
XW-2A 11 Dec 17:47:19 17:48:40 12° 61° (ENE) 17:50:01 145.665 - 145.685
HO-68 11 Dec 17:48:31 17:55:40 71° 68° (ENE) 18:02:50 435.675
DOVE 4 11 Dec 17:54:11 17:56:58 14° 274° (W) 17:59:44 437.250
XW-2F 11 Dec 17:54:21 17:57:53 39° 262° (W) 18:01:30 145.980 - 146.000
ZACube-1 11 Dec 18:04:40 18:07:13 16° 60° (ENE) 18:09:47 437.345
XW-2C 11 Dec 18:06:21 18:09:36 28° 265° (W) 18:12:56 145.795 - 145.815
CUBESAT XI-V 11 Dec 18:14:58 18:17:48 16° 303° (WNW) 18:20:35 437.345
nSIGHT-1 11 Dec 18:17:59 18:21:09 52° 207° (SSW) 18:24:16 .
Oscar 11 11 Dec 18:30:29 18:33:28 19° 61° (ENE) 18:36:30 .
SEEDS 11 Dec 18:33:04 18:37:18 88° 70° (ENE) 18:41:35 437.485
STARS 11 Dec 18:34:58 18:39:20 74° 288° (WNW) 18:43:40 437.465
PCSat 11 Dec 18:36:47 18:40:29 19° 106° (ESE) 18:44:11 145.827
AO-73 11 Dec 18:39:45 18:43:19 29° 66° (ENE) 18:46:55 145.935
LilacSat-2 11 Dec 18:39:50 18:41:34 13° 272° (W) 18:43:18 437.200
O/OREOS (USA 219) 11 Dec 18:41:55 18:46:28 88° 240° (WSW) 18:50:57 437.305
STRAND 1 11 Dec 18:42:43 18:46:32 21° 91° (E) 18:50:21 437.568
ISS 11 Dec 18:46:07 18:49:16 42° 210° (SSW) 18:52:22 437.550
CUTE 1.7 + AOD 2 11 Dec 18:48:56 18:52:57 41° 262° (W) 18:57:02 437.475
CUBEBUG 2 11 Dec 18:57:54 19:02:03 53° 260° (W) 19:06:09 437.445
AAUSAT CUBESAT 2 11 Dec 19:03:35 19:07:46 83° 75° (ENE) 19:11:59 437.432
UWE-3 11 Dec 19:05:22 19:09:33 77° 258° (WSW) 19:13:42 435.000/436.395/437.385
FO-29 11 Dec 19:17:34 19:22:37 20° 83° (E) 19:27:16 435.910
XW-2A 11 Dec 19:17:37 19:20:55 59° 260° (W) 19:24:15 145.665 - 145.685
KKS-1 11 Dec 19:18:51 19:21:29 16° 303° (WNW) 19:24:06 437.445
SO-50 11 Dec 19:28:17 19:31:13 17° 340° (NNW) 19:34:12 436.795
CUTE-I 11 Dec 19:32:15 19:33:11 10° 276° (W) 19:34:07 437.470
HO-68 11 Dec 19:38:02 19:44:00 28° 268° (W) 19:50:00 435.675
ZACube-1 11 Dec 19:38:57 19:43:03 64° 259° (WSW) 19:47:11 437.345
nSIGHT-1 11 Dec 19:55:49 19:56:45 11° 225° (SW) 19:57:42 .
Max Valier Satellite 11 Dec 20:03:29 20:06:15 21° 64° (ENE) 20:09:03 145.860
RS-15 11 Dec 20:03:44 20:14:57 39° 360° (N) 20:25:45 29.354- 29.394
Oscar 11 11 Dec 20:04:58 20:09:13 58° 259° (W) 20:13:31 .
SEEDS 11 Dec 20:12:27 20:13:37 11° 274° (W) 20:14:47 437.485
STARS 11 Dec 20:13:34 20:14:54 11° 306° (NW) 20:16:13 437.465
AO-73 11 Dec 20:15:52 20:19:32 30° 265° (W) 20:23:14 145.935
PCSat 11 Dec 20:17:48 20:23:14 82° 305° (NW) 20:28:42 145.827
STRAND 1 11 Dec 20:21:06 20:26:09 61° 290° (WNW) 20:31:10 437.568
O/OREOS (USA 219) 11 Dec 20:23:39 20:25:06 11° 263° (W) 20:26:33 437.305
EO-88 11 Dec 20:39:35 20:42:55 35° 69° (ENE) 20:46:17 145.990 - 145.960
DELFI C3 11 Dec 20:40:12 20:44:11 75° 74° (ENE) 20:48:12 145.870
AAUSAT CUBESAT 2 11 Dec 20:42:26 20:43:48 11° 274° (W) 20:45:11 437.432
FO-29 11 Dec 21:01:24 21:08:48 89° 276° (W) 21:15:16 435.910
SO-50 11 Dec 21:11:33 21:13:31 12° 5° (N) 21:15:30 436.795
BEESAT 3 11 Dec 21:17:59 21:21:51 51° 124° (ESE) 21:25:46 437.485
LO-87 11 Dec 21:23:05 21:25:23 17° 63° (ENE) 21:27:41 145.935 - 145.965
Max Valier Satellite 11 Dec 21:36:30 21:39:52 36° 263° (W) 21:43:18 145.860
ESTCUBE 1 11 Dec 21:38:59 21:42:39 25° 63° (ENE) 21:46:20 437.505/2401.250
BEESAT 2 11 Dec 21:49:20 21:52:57 33° 119° (ESE) 21:56:37 435.950
TIGRISAT 11 Dec 21:57:06 22:01:21 56° 100° (E) 22:05:39 435.000
UNISAT 6 11 Dec 21:59:21 22:03:38 65° 101° (E) 22:07:59 437.425
STRAND 1 11 Dec 22:02:35 22:04:21 12° 310° (NW) 22:06:07 437.568
PCSat 11 Dec 22:03:11 22:07:27 23° 328° (NNW) 22:11:45 145.827
PRISM 11 Dec 22:09:48 22:13:17 26° 95° (E) 22:16:42 437.425
EO-88 11 Dec 22:13:54 22:16:40 20° 267° (W) 22:19:27 145.990 - 145.960
DELFI C3 11 Dec 22:17:54 22:19:25 12° 272° (W) 22:20:58 145.870
RS-15 11 Dec 22:18:47 22:30:36 55° 32° (NNE) 22:41:48 29.354- 29.394
FO-29 11 Dec 22:47:18 22:52:49 24° 309° (NW) 22:57:56 435.910
SO-50 11 Dec 22:51:58 22:55:38 22° 29° (NNE) 22:59:20 436.795
LO-87 11 Dec 22:55:05 22:58:29 44° 261° (W) 23:01:54 145.935 - 145.965
BEESAT 3 11 Dec 22:56:10 22:59:37 27° 324° (NW) 23:03:04 437.485
AO-85 11 Dec 22:58:43 23:02:28 44° 122° (ESE) 23:06:27 145.980
SPROUT 11 Dec 23:00:09 23:04:04 37° 68° (ENE) 23:07:59 437.525
NANOSAT C BR1 11 Dec 23:09:33 23:11:48 14° 89° (E) 23:14:03 145.865
ESTCUBE 1 11 Dec 23:14:54 23:19:12 45° 261° (W) 23:23:36 437.505/2401.250
EO-79 11 Dec 23:21:42 23:24:54 21° 92° (E) 23:28:05 145.935-145.965
BEESAT 2 11 Dec 23:26:52 23:30:39 37° 319° (NW) 23:34:27 435.950
VELOX 1 11 Dec 23:27:37 23:31:53 46° 69° (ENE) 23:36:09 145.980
TIGRISAT 11 Dec 23:34:39 23:37:41 19° 299° (WNW) 23:40:45 435.000
AIST 2D 11 Dec 23:34:47 23:38:22 86° 102° (ESE) 23:41:56 435.315
UNISAT 6 11 Dec 23:37:07 23:39:56 17° 300° (WNW) 23:42:44 437.425
POLYITAN 1 11 Dec 23:43:15 23:47:05 33° 96° (E) 23:50:55 437.675
50 SAT 11 Dec 23:43:43 23:45:05 12° 61° (ENE) 23:46:25 437.505
PRISM 11 Dec 23:44:51 23:48:37 35° 293° (WNW) 23:52:21 437.425
PCSat 11 Dec 23:50:44 23:52:56 12° 354° (N) 23:55:10 145.827
